When you browse on this site, cookies collect data to enhance your experience and personalize the content and advertising you see.
Visit our Privacy Policy to learn more. By continuing to use the site, you agree to this use of cookies and data.
  • In Österreich
  • Länderverzeichnis
  • Für 7 Tage
  • Wassertemperatur
  • Satellitenkarten
  • Wetterkarte
  • News
  • Widgets
  • user-avatar
    Anmelden

    Stündliche Wetter Holhol

    Heute, 19 Januar, Samstag

    Zeit Temperatur Niederschläge Wind Luftdruck Luftfeuchtigkeit
    00:00 +24°C° 0 mm 2 m/S 715 mmHg 73%
    01:00 +24°C° 0 mm 2 m/S 715 mmHg 75%
    02:00 +23°C° 0 mm 2 m/S 715 mmHg 77%
    03:00 +23°C° 0 mm 2 m/S 715 mmHg 79%
    04:00 +23°C° 0 mm 1 m/S 715 mmHg 81%
    05:00 +22°C° 0 mm 1 m/S 715 mmHg 82%
    06:00 +22°C° 0 mm 1 m/S 716 mmHg 84%
    07:00 +23°C° 0 mm 1 m/S 716 mmHg 81%
    08:00 +23°C° 0 mm 2 m/S 716 mmHg 77%
    09:00 +24°C° 0 mm 2 m/S 717 mmHg 72%
    10:00 +25°C° 0 mm 3 m/S 717 mmHg 66%
    11:00 +27°C° 0 mm 3 m/S 717 mmHg 60%
    12:00 +28°C° 0 mm 4 m/S 717 mmHg 54%
    13:00 +28°C° 0 mm 4 m/S 716 mmHg 51%
    14:00 +29°C° 0 mm 5 m/S 716 mmHg 49%
    15:00 +29°C° 0 mm 5 m/S 715 mmHg 48%
    16:00 +28°C° 0 mm 5 m/S 715 mmHg 52%
    17:00 +27°C° 0 mm 5 m/S 715 mmHg 56%
    18:00 +26°C° 0 mm 5 m/S 715 mmHg 60%
    19:00 +25°C° 0 mm 5 m/S 716 mmHg 63%
    20:00 +25°C° 0 mm 4 m/S 716 mmHg 65%
    21:00 +23°C° 0 mm 4 m/S 716 mmHg 67%
    22:00 +24°C° 0 mm 3 m/S 716 mmHg 69%
    23:00 +24°C° 0 mm 3 m/S 716 mmHg 70%

    Morgen, 20 Januar, Sonntag

    Zeit Temperatur Niederschläge Wind Luftdruck Luftfeuchtigkeit
    00:00 +22°C° 0 mm 3 m/S 716 mmHg 71%
    01:00 +22°C° 0 mm 3 m/S 716 mmHg 73%
    02:00 +23°C° 0 mm 2 m/S 716 mmHg 75%
    03:00 +21°C° 0 mm 2 m/S 716 mmHg 77%
    04:00 +21°C° 0 mm 2 m/S 716 mmHg 79%
    05:00 +21°C° 0 mm 2 m/S 716 mmHg 81%
    06:00 +21°C° 0 mm 1 m/S 716 mmHg 83%
    07:00 +21°C° 0 mm 2 m/S 717 mmHg 78%
    08:00 +23°C° 0 mm 2 m/S 717 mmHg 72%
    09:00 +24°C° 0 mm 3 m/S 718 mmHg 67%
    10:00 +25°C° 0 mm 3 m/S 718 mmHg 62%
    11:00 +26°C° 0 mm 4 m/S 718 mmHg 56%
    12:00 +27°C° 0 mm 5 m/S 718 mmHg 51%
    13:00 +28°C° 0 mm 5 m/S 717 mmHg 50%
    14:00 +28°C° 0 mm 5 m/S 717 mmHg 48%
    15:00 +29°C° 0 mm 6 m/S 716 mmHg 47%
    16:00 +28°C° 0 mm 6 m/S 716 mmHg 51%
    17:00 +27°C° 0 mm 6 m/S 716 mmHg 54%
    18:00 +26°C° 0 mm 6 m/S 716 mmHg 58%
    19:00 +25°C° 0 mm 5 m/S 716 mmHg 62%
    20:00 +25°C° 0 mm 5 m/S 717 mmHg 66%
    21:00 +23°C° 0 mm 4 m/S 717 mmHg 69%
    22:00 +23°C° 0 mm 4 m/S 717 mmHg 71%
    23:00 +22°C° 0 mm 4 m/S 717 mmHg 73%

    übermorgen, 21 Januar, Montag

    Zeit Temperatur Niederschläge Wind Luftdruck Luftfeuchtigkeit
    00:00 +22°C° 0 mm 4 m/S 717 mmHg 75%
    01:00 +22°C° 0 mm 4 m/S 717 mmHg 77%
    02:00 +21°C° 0 mm 3 m/S 716 mmHg 78%
    03:00 +21°C° 0 mm 3 m/S 716 mmHg 80%
    04:00 +21°C° 0 mm 3 m/S 716 mmHg 81%
    05:00 +21°C° 0 mm 3 m/S 717 mmHg 81%
    06:00 +21°C° 0 mm 2 m/S 717 mmHg 82%
    07:00 +22°C° 0 mm 3 m/S 717 mmHg 76%
    08:00 +22°C° 0 mm 3 m/S 718 mmHg 71%
    09:00 +23°C° 0 mm 4 m/S 719 mmHg 66%
    10:00 +26°C° 0 mm 4 m/S 718 mmHg 60%
    11:00 +27°C° 0 mm 4 m/S 718 mmHg 53%
    12:00 +28°C° 0 mm 4 m/S 718 mmHg 47%
    13:00 +29°C° 0 mm 5 m/S 717 mmHg 46%
    14:00 +29°C° 0 mm 6 m/S 716 mmHg 45%
    15:00 +30°C° 0 mm 6 m/S 715 mmHg 44%
    16:00 +29°C° 0 mm 6 m/S 715 mmHg 50%
    17:00 +27°C° 0 mm 6 m/S 715 mmHg 56%
    18:00 +26°C° 0 mm 6 m/S 715 mmHg 62%
    19:00 +24°C° 0 mm 6 m/S 716 mmHg 66%
    20:00 +25°C° 0 mm 5 m/S 716 mmHg 70%
    21:00 +23°C° 0 mm 5 m/S 717 mmHg 74%
    22:00 +23°C° 0 mm 4 m/S 716 mmHg 75%
    23:00 +23°C° 0 mm 4 m/S 716 mmHg 77%

    22 Januar, Dienstag

    Zeit Temperatur Niederschläge Wind Luftdruck Luftfeuchtigkeit
    00:00 +23°C° 0 mm 4 m/S 716 mmHg 79%
    01:00 +22°C° 0 mm 4 m/S 716 mmHg 79%
    02:00 +22°C° 0 mm 3 m/S 715 mmHg 80%
    03:00 +22°C° 0 mm 3 m/S 715 mmHg 81%
    04:00 +22°C° 0 mm 3 m/S 715 mmHg 82%
    05:00 +22°C° 0 mm 3 m/S 715 mmHg 83%
    06:00 +23°C° 0 mm 2 m/S 716 mmHg 83%
    07:00 +22°C° 0 mm 3 m/S 716 mmHg 79%
    08:00 +24°C° 0 mm 3 m/S 717 mmHg 75%
    09:00 +25°C° 0 mm 4 m/S 717 mmHg 71%
    10:00 +26°C° 0 mm 4 m/S 717 mmHg 66%
    11:00 +27°C° 0 mm 5 m/S 717 mmHg 61%
    12:00 +28°C° 0 mm 5 m/S 716 mmHg 56%
    13:00 +29°C° 0 mm 5 m/S 716 mmHg 55%
    14:00 +29°C° 0 mm 6 m/S 715 mmHg 54%
    15:00 +29°C° 0 mm 6 m/S 714 mmHg 53%
    16:00 +28°C° 0 mm 6 m/S 714 mmHg 58%
    17:00 +27°C° 0 mm 6 m/S 714 mmHg 63%
    18:00 +26°C° 0 mm 6 m/S 714 mmHg 68%
    19:00 +26°C° 0 mm 6 m/S 715 mmHg 70%
    20:00 +25°C° 0 mm 5 m/S 715 mmHg 73%
    21:00 +25°C° 0 mm 5 m/S 716 mmHg 76%
    22:00 +23°C° 0 mm 5 m/S 715 mmHg 77%
    23:00 +23°C° 0 mm 4 m/S 715 mmHg 78%

    23 Januar, Mittwoch

    Zeit Temperatur Niederschläge Wind Luftdruck Luftfeuchtigkeit
    00:00 +23°C° 0 mm 4 m/S 715 mmHg 79%
    01:00 +22°C° 0 mm 4 m/S 714 mmHg 80%
    02:00 +22°C° 0 mm 4 m/S 714 mmHg 82%
    03:00 +22°C° 0 mm 4 m/S 714 mmHg 83%
    04:00 +22°C° 0 mm 3 m/S 714 mmHg 84%
    05:00 +21°C° 0 mm 3 m/S 714 mmHg 84%
    06:00 +21°C° 0 mm 3 m/S 715 mmHg 85%
    07:00 +22°C° 0 mm 3 m/S 715 mmHg 81%
    08:00 +23°C° 0 mm 4 m/S 716 mmHg 76%
    09:00 +23°C° 0 mm 4 m/S 717 mmHg 72%
    10:00 +25°C° 0 mm 5 m/S 716 mmHg 67%
    11:00 +26°C° 0 mm 6 m/S 716 mmHg 61%
    12:00 +28°C° 0 mm 6 m/S 716 mmHg 56%
    13:00 +28°C° 0 mm 7 m/S 715 mmHg 54%
    14:00 +28°C° 0 mm 7 m/S 714 mmHg 52%
    15:00 +28°C° 0 mm 7 m/S 714 mmHg 50%
    16:00 +27°C° 0 mm 7 m/S 714 mmHg 55%
    17:00 +26°C° 0 mm 7 m/S 714 mmHg 61%
    18:00 +24°C° 0 mm 7 m/S 714 mmHg 66%
    19:00 +24°C° 0 mm 6 m/S 715 mmHg 69%
    20:00 +23°C° 0 mm 5 m/S 715 mmHg 73%
    21:00 +23°C° 0 mm 5 m/S 716 mmHg 76%
    22:00 +23°C° 0 mm 4 m/S 716 mmHg 77%
    23:00 +22°C° 0 mm 4 m/S 716 mmHg 78%

    24 Januar, Donnerstag

    Zeit Temperatur Niederschläge Wind Luftdruck Luftfeuchtigkeit
    00:00 +22°C° 0 mm 4 m/S 716 mmHg 79%
    01:00 +22°C° 0 mm 4 m/S 715 mmHg 79%
    02:00 +22°C° 0 mm 4 m/S 715 mmHg 79%
    03:00 +22°C° 0 mm 3 m/S 715 mmHg 79%
    04:00 +22°C° 0 mm 3 m/S 715 mmHg 80%
    05:00 +22°C° 0 mm 4 m/S 715 mmHg 80%
    06:00 +21°C° 0 mm 4 m/S 716 mmHg 80%
    07:00 +22°C° 0 mm 4 m/S 716 mmHg 76%
    08:00 +23°C° 0 mm 5 m/S 717 mmHg 72%
    09:00 +25°C° 0 mm 5 m/S 717 mmHg 68%
    10:00 +24°C° 0 mm 6 m/S 717 mmHg 63%
    11:00 +26°C° 0 mm 6 m/S 717 mmHg 58%
    12:00 +27°C° 0 mm 7 m/S 716 mmHg 54%
    13:00 +28°C° 0 mm 7 m/S 716 mmHg 52%
    14:00 +28°C° 0 mm 7 m/S 715 mmHg 50%
    15:00 +28°C° 0 mm 7 m/S 714 mmHg 48%
    16:00 +27°C° 0 mm 7 m/S 714 mmHg 54%
    17:00 +26°C° 0 mm 6 m/S 715 mmHg 59%
    18:00 +24°C° 0 mm 6 m/S 715 mmHg 65%
    19:00 +24°C° 0 mm 6 m/S 715 mmHg 69%
    20:00 +23°C° 0 mm 5 m/S 716 mmHg 73%
    21:00 +23°C° 0 mm 5 m/S 716 mmHg 76%
    22:00 +23°C° 0 mm 5 m/S 716 mmHg 77%
    23:00 +22°C° 0 mm 5 m/S 716 mmHg 78%
    Mehr zeigen